When you browse on this site, cookies collect data to enhance your experience and personalize the content and advertising you see.
Visit our Privacy Policy to learn more. By continuing to use the site, you agree to this use of cookies and data.
  • In Hungary
  • List of Countries
  • For 7 days
  • Water Temperature
  • Satellite Maps
  • Weather Map
  • News
  • Weather Widgets
  • user-avatar
    Login

    Hourly Weather Kadlubiska

    Today, 21 November, Wednesday

    Time Temperature Precipitation Wind Pressure Humidity
    00:00 -4°C° 0 mm 6 mps 748 mmHg 77%
    01:00 -4°C° 0 mm 6 mps 748 mmHg 77%
    02:00 -4°C° 0 mm 4 mps 748 mmHg 84%
    03:00 -5°C° 0 mm 5 mps 748 mmHg 84%
    04:00 -5°C° 0 mm 5 mps 748 mmHg 85%
    05:00 -5°C° 0 mm 5 mps 747 mmHg 86%
    06:00 -5°C° 0 mm 5 mps 748 mmHg 86%
    07:00 -5°C° 0 mm 5 mps 748 mmHg 86%
    08:00 -4°C° 0 mm 5 mps 748 mmHg 86%
    09:00 -4°C° 0 mm 5 mps 748 mmHg 85%
    10:00 -2°C° 0 mm 5 mps 748 mmHg 83%
    11:00 -2°C° 0 mm 5 mps 748 mmHg 81%
    12:00 -2°C° 0 mm 5 mps 748 mmHg 80%
    13:00 -1°C° 0 mm 5 mps 748 mmHg 79%
    14:00 -1°C° 0 mm 5 mps 748 mmHg 78%
    15:00 -1°C° 0 mm 5 mps 748 mmHg 80%
    16:00 -2°C° 0 mm 5 mps 748 mmHg 81%
    17:00 -2°C° 0 mm 4 mps 748 mmHg 83%
    18:00 -3°C° 0 mm 4 mps 749 mmHg 84%
    19:00 -3°C° 0 mm 4 mps 749 mmHg 85%
    20:00 -4°C° 0 mm 4 mps 749 mmHg 86%
    21:00 -4°C° 0 mm 4 mps 749 mmHg 87%
    22:00 -4°C° 0 mm 4 mps 749 mmHg 88%
    23:00 -4°C° 0 mm 4 mps 750 mmHg 88%

    Tomorrow, 22 November, Thursday

    Time Temperature Precipitation Wind Pressure Humidity
    00:00 -5°C° 0 mm 4 mps 749 mmHg 89%
    01:00 -5°C° 0 mm 4 mps 749 mmHg 89%
    02:00 -5°C° 0 mm 4 mps 749 mmHg 90%
    03:00 -5°C° 0 mm 4 mps 749 mmHg 90%
    04:00 -5°C° 0 mm 3 mps 749 mmHg 90%
    05:00 -5°C° 0 mm 3 mps 749 mmHg 90%
    06:00 -5°C° 0 mm 3 mps 750 mmHg 90%
    07:00 -5°C° 0 mm 3 mps 750 mmHg 90%
    08:00 -5°C° 0 mm 3 mps 750 mmHg 90%
    09:00 -4°C° 0 mm 3 mps 750 mmHg 85%
    10:00 -2°C° 0 mm 3 mps 750 mmHg 80%
    11:00 -1°C° 0 mm 3 mps 750 mmHg 75%
    12:00 -1°C° 0 mm 3 mps 750 mmHg 73%
    13:00 0°C° 0 mm 3 mps 750 mmHg 70%
    14:00 +1°C° 0 mm 3 mps 750 mmHg 67%
    15:00 0°C° 0 mm 3 mps 750 mmHg 72%
    16:00 -1°C° 0 mm 2 mps 750 mmHg 76%
    17:00 -2°C° 0 mm 2 mps 750 mmHg 80%
    18:00 -3°C° 0 mm 2 mps 750 mmHg 81%
    19:00 -3°C° 0 mm 2 mps 750 mmHg 81%
    20:00 -3°C° 0 mm 2 mps 750 mmHg 81%
    21:00 -3°C° 0 mm 2 mps 750 mmHg 81%
    22:00 -3°C° 0 mm 2 mps 750 mmHg 81%
    23:00 -4°C° 0 mm 2 mps 751 mmHg 81%

    Day after tomorrow, 23 November, Friday

    Time Temperature Precipitation Wind Pressure Humidity
    00:00 -4°C° 0 mm 2 mps 751 mmHg 81%
    01:00 -4°C° 0 mm 2 mps 751 mmHg 81%
    02:00 -4°C° 0 mm 2 mps 751 mmHg 81%
    03:00 -4°C° 0 mm 2 mps 751 mmHg 80%
    04:00 -4°C° 0 mm 2 mps 750 mmHg 80%
    05:00 -4°C° 0 mm 2 mps 750 mmHg 80%
    06:00 -4°C° 0 mm 2 mps 751 mmHg 80%
    07:00 -4°C° 0 mm 2 mps 751 mmHg 80%
    08:00 -4°C° 0 mm 2 mps 751 mmHg 80%
    09:00 -3°C° 0 mm 2 mps 751 mmHg 75%
    10:00 -2°C° 0 mm 2 mps 751 mmHg 70%
    11:00 +1°C° 0 mm 2 mps 751 mmHg 65%
    12:00 +1°C° 0 mm 2 mps 751 mmHg 64%
    13:00 +2°C° 0 mm 2 mps 751 mmHg 63%
    14:00 +3°C° 0 mm 2 mps 751 mmHg 62%
    15:00 +2°C° 0 mm 2 mps 750 mmHg 67%
    16:00 +1°C° 0 mm 2 mps 750 mmHg 72%
    17:00 -1°C° 0 mm 2 mps 750 mmHg 77%
    18:00 -1°C° 0 mm 3 mps 750 mmHg 79%
    19:00 -1°C° 0 mm 3 mps 750 mmHg 81%
    20:00 -1°C° 0 mm 3 mps 749 mmHg 83%
    21:00 -1°C° 0 mm 3 mps 749 mmHg 85%
    22:00 -1°C° 0 mm 3 mps 749 mmHg 88%
    23:00 -1°C° 0 mm 3 mps 749 mmHg 90%

    24 November, Saturday

    Time Temperature Precipitation Wind Pressure Humidity
    00:00 -1°C° 0 mm 3 mps 748 mmHg 91%
    01:00 -1°C° 0 mm 3 mps 748 mmHg 92%
    02:00 -1°C° 0 mm 3 mps 748 mmHg 93%
    03:00 -1°C° 0 mm 3 mps 747 mmHg 93%
    04:00 -1°C° 0 mm 3 mps 747 mmHg 93%
    05:00 0°C° 0 mm 3 mps 746 mmHg 92%
    06:00 0°C° 0 mm 3 mps 746 mmHg 92%
    07:00 0°C° 0 mm 3 mps 746 mmHg 92%
    08:00 0°C° 0 mm 3 mps 745 mmHg 92%
    09:00 +1°C° 0 mm 3 mps 745 mmHg 89%
    10:00 +2°C° 0 mm 3 mps 745 mmHg 86%
    11:00 +3°C° 0 mm 3 mps 745 mmHg 83%
    12:00 +4°C° 0.1 mm 3 mps 744 mmHg 84%
    13:00 +4°C° 0.1 mm 3 mps 744 mmHg 85%
    14:00 +4°C° 0.1 mm 3 mps 743 mmHg 86%
    15:00 +3°C° 0.3 mm 3 mps 743 mmHg 88%
    16:00 +3°C° 0.3 mm 3 mps 743 mmHg 90%
    17:00 +2°C° 0.3 mm 3 mps 742 mmHg 92%
    18:00 +2°C° 0.2 mm 3 mps 742 mmHg 92%
    19:00 +2°C° 0.2 mm 3 mps 742 mmHg 93%
    20:00 +2°C° 0.2 mm 3 mps 742 mmHg 93%
    21:00 +2°C° 0.1 mm 3 mps 741 mmHg 93%
    22:00 +3°C° 0.1 mm 3 mps 741 mmHg 93%
    23:00 +3°C° 0.1 mm 3 mps 741 mmHg 93%

    25 November, Sunday

    Time Temperature Precipitation Wind Pressure Humidity
    00:00 +3°C° 0.2 mm 3 mps 741 mmHg 94%
    01:00 +3°C° 0.2 mm 3 mps 741 mmHg 94%
    02:00 +3°C° 0.2 mm 3 mps 741 mmHg 95%
    03:00 +3°C° 0.2 mm 3 mps 741 mmHg 96%
    04:00 +3°C° 0.2 mm 3 mps 741 mmHg 96%
    05:00 +3°C° 0.2 mm 3 mps 740 mmHg 97%
    06:00 +2°C° 0.1 mm 3 mps 740 mmHg 97%
    07:00 +2°C° 0.1 mm 3 mps 740 mmHg 96%
    08:00 +3°C° 0.1 mm 2 mps 740 mmHg 96%
    09:00 +3°C° 0 mm 2 mps 740 mmHg 95%
    10:00 +3°C° 0 mm 2 mps 741 mmHg 93%
    11:00 +3°C° 0 mm 2 mps 741 mmHg 91%
    12:00 +4°C° 0 mm 2 mps 741 mmHg 89%
    13:00 +4°C° 0 mm 2 mps 741 mmHg 87%
    14:00 +4°C° 0 mm 2 mps 740 mmHg 85%
    15:00 +4°C° 0 mm 2 mps 740 mmHg 85%
    16:00 +4°C° 0 mm 2 mps 740 mmHg 86%
    17:00 +3°C° 0 mm 2 mps 740 mmHg 86%
    18:00 +3°C° 0 mm 2 mps 740 mmHg 86%
    19:00 +4°C° 0 mm 1 mps 740 mmHg 86%
    20:00 +4°C° 0 mm 1 mps 740 mmHg 86%
    21:00 +4°C° 0 mm 1 mps 740 mmHg 86%
    22:00 +4°C° 0 mm 1 mps 740 mmHg 87%
    23:00 +3°C° 0 mm 1 mps 741 mmHg 87%

    26 November, Monday

    Time Temperature Precipitation Wind Pressure Humidity
    00:00 +3°C° 0 mm 1 mps 740 mmHg 88%
    01:00 +3°C° 0 mm 1 mps 740 mmHg 88%
    02:00 +3°C° 0 mm 1 mps 740 mmHg 89%
    03:00 +3°C° 0 mm 1 mps 740 mmHg 89%
    04:00 +3°C° 0 mm 1 mps 740 mmHg 90%
    05:00 +3°C° 0 mm 1 mps 740 mmHg 91%
    06:00 +2°C° 0 mm 2 mps 740 mmHg 91%
    07:00 +2°C° 0 mm 2 mps 740 mmHg 92%
    08:00 +1°C° 0 mm 2 mps 741 mmHg 92%
    09:00 +1°C° 0 mm 2 mps 741 mmHg 89%
    10:00 +1°C° 0 mm 3 mps 741 mmHg 86%
    11:00 +1°C° 0 mm 3 mps 741 mmHg 83%
    12:00 +1°C° 0 mm 3 mps 741 mmHg 80%
    13:00 +1°C° 0 mm 3 mps 741 mmHg 76%
    14:00 +1°C° 0 mm 3 mps 741 mmHg 72%
    15:00 0°C° 0 mm 3 mps 742 mmHg 74%
    16:00 -1°C° 0 mm 3 mps 742 mmHg 76%
    17:00 -2°C° 0 mm 3 mps 742 mmHg 78%
    18:00 -2°C° 0 mm 3 mps 742 mmHg 79%
    19:00 -4°C° 0 mm 3 mps 742 mmHg 81%
    20:00 -4°C° 0 mm 3 mps 743 mmHg 82%
    21:00 -4°C° 0 mm 3 mps 743 mmHg 81%
    22:00 -4°C° 0 mm 2 mps 743 mmHg 80%
    23:00 -4°C° 0 mm 2 mps 744 mmHg 79%
    Show more